User: anonymous
Location: Unspecified
(0.0000°N, 0.0000°E)
Time: 16:25:29
(UTC+00:00)
Language:

CHIBIS-M - Orbit

View from above orbital plane
View from above orbital plane
View from above satellite
View from above satellite

Ground track
Ground track

The orbit data is extracted from the following two-line orbital elements,

1 38051U 11062C   14106.17767509  .00055646  00000-0  88993-3 0  4486
2 38051 051.6277 173.2997 0010094 327.2929 068.7529 15.52544160124459
Epoch (UTC): 16 April 2014 04:15:51
Eccentricity: 0.0010094
inclination: 51.6277°
perigee height: 402 km
apogee height: 416 km
right ascension of ascending node: 173.2997°
argument of perigee: 327.2929°
revolutions per day: 15.52544160
mean anomaly at epoch: 68.7529°
orbit number at epoch: 12445

The dashed part of the orbit path shows where the satellite is in the earth's shadow,  

DLR